Location: Unspecified
(54.1780°N, 4.6260°W)
Time: 00:44:23
(UTC+00:00)

Daily predictions for brighter satellites

Satellite Brightness Start Highest point End
(mag) Time Altitude Azimuth Time Altitude Azimuth Time Altitude Azimuth
SL-4 R/B 4.1 00:01:11 10° W 00:02:02 15° W 00:02:02 15° W
Cosmos 1544 Rocket 3.9 00:04:23 45° SW 00:05:25 58° WNW 00:09:46 10° N
Cosmos 1726 Rocket 4.1 00:05:24 40° ESE 00:05:46 41° E 00:09:39 10° NNE
Gbstr 26 Del rocket 4.1 00:01:38 10° W 00:04:09 29° WSW 00:04:09 29° WSW
Cosmos 1486 Rocket 4.4 00:01:55 10° NNW 00:07:06 57° ENE 00:09:29 31° ESE
Cosmos 2084 3.6 00:06:18 37° WSW 00:07:49 68° NW 00:11:58 10° NE
Cosmos 2237 4.3 00:05:18 10° NW 00:10:58 63° WSW 00:12:35 45° S
Cosmos 1980 Rocket 3.2 00:08:49 10° NW 00:13:48 32° WSW 00:14:59 29° SW
Cosmos 1805 3.4 00:12:13 10° NNW 00:14:58 50° WNW 00:14:58 50° WNW
Cosmos 2058 Rocket 4.3 00:15:43 27° ESE 00:16:30 29° E 00:20:17 10° NNE
NOSS 3-4 (A) 4.1 00:10:25 10° NW 00:16:41 64° NNE 00:24:07 10° ESE
ARGOS Delta rocket 3.8 00:12:12 10° NNE 00:16:54 85° WNW 00:18:07 51° SSW
NOSS 3-4 (C) 4.1 00:10:57 10° NW 00:17:16 64° NNE 00:24:43 10° ESE
Nadezhda 4 Rocket 4.0 00:11:41 10° NNW 00:17:46 67° W 00:19:58 40° SSW
Okean 1-7 Rocket 3.7 00:18:14 10° NNW 00:22:34 61° W 00:23:11 54° SW
Cosmos 1992 Rocket 3.9 00:26:52 49° SSW 00:28:19 82° ESE 00:33:34 10° NNE
ATLAS 2AS CENTAUR R/B 3.3 00:22:00 10° WSW 00:28:47 55° NNW 00:35:28 10° NE
Cosmos 1953 Rocket 3.5 00:25:22 10° N 00:29:50 84° ENE 00:30:37 60° SSE
Cosmos 1707 3.9 00:33:06 23° ENE 00:33:06 23° ENE 00:34:53 10° NNE
Cosmos 1933 4.0 00:32:10 37° W 00:32:40 39° WNW 00:36:17 10° N
Cosmos 1302 Rocket 4.3 00:31:26 34° SW 00:33:34 61° WNW 00:38:43 10° NNE
Cosmos 1825 Rocket 3.7 00:31:08 10° NNW 00:35:21 54° W 00:35:49 51° WSW
ACS3 Solar Sail 2.8 00:32:49 10° NNE 00:38:16 34° E 00:41:01 24° SE
USA 234 3.4 00:32:28 10° ENE 00:39:01 74° N 00:45:33 10° W
Cosmos 2098 Rocket 3.9 00:38:10 38° SW 00:40:09 60° WNW 00:45:20 10° N
Cosmos 1975 4.4 00:37:12 10° N 00:40:16 24° ENE 00:41:35 20° E
Cosmos 2360 Rocket 2.4 00:35:16 10° NNW 00:40:58 71° NE 00:44:18 26° SE
Landsat 5 3.6 00:37:23 10° NNE 00:41:37 62° ESE 00:42:13 55° SE
Cosmos 2369 4.5 00:36:33 10° NW 00:41:42 35° WSW 00:42:42 33° SW
Cosmos 1437 Rocket 3.4 00:42:17 37° WNW 00:42:29 37° WNW 00:45:48 10° N
Cosmos 1464 Rocket 4.2 00:40:49 34° SW 00:43:26 60° WNW 00:49:31 10° N
Cosmos 1536 2.7 00:41:58 10° N 00:45:36 63° ENE 00:45:53 60° ESE
Cosmos 2026 Rocket 4.0 00:39:27 10° NNW 00:45:44 72° W 00:48:13 39° S
Cosmos 1833 Rocket 4.4 00:41:53 10° W 00:46:42 29° NW 00:51:33 10° NNE
Aureole 1 Rocket 4.4 00:46:38 10° NNW 00:50:43 40° NE 00:55:27 11° SE
COSMOS 2406 3.2 00:51:38 43° S 00:53:32 71° ESE 00:59:17 10° NE
CZ-2C R/B 2.9 00:53:05 42° SSW 00:54:35 55° W 00:59:51 10° NNW
Cosmos 724 4.3 00:52:26 33° SW 00:55:21 85° NW 01:01:18 10° NE
Cosmos 1076 Rocket 3.9 00:52:37 10° NNW 00:56:44 45° W 00:57:12 43° WSW
Cosmos 1766 3.0 00:54:20 10° NNW 00:57:11 66° NNW 00:57:11 66° NNW
Cosmos 2082 Rocket 2.5 00:57:15 30° SW 01:00:04 64° NW 01:05:47 10° NNE
Cosmos 2322 Rocket 2.1 00:55:39 10° NNW 01:01:19 84° WSW 01:03:56 34° SSE
Meteor 2-2 Rocket 4.3 00:59:20 40° S 01:01:23 71° E 01:07:03 10° NNE
Meteor 1-26 Rocket 4.1 01:00:14 43° S 01:02:04 81° ESE 01:07:35 10° NNE
Meteor 2-9 Rocket 4.5 01:00:04 10° N 01:05:21 59° ENE 01:08:11 27° SE
Cosmos 2219 Rocket 2.4 00:59:46 10° NNW 01:05:25 70° NE 01:09:44 18° SE
Cosmos 1607 3.9 01:03:18 33° SW 01:06:19 89° NW 01:12:39 10° NE
Cosmos 2278 3.8 01:03:17 10° NW 01:08:54 58° WSW 01:10:42 40° S
Cosmos 2333 Rocket 2.4 01:03:48 10° NW 01:09:19 53° WSW 01:10:53 41° SSW
Cosmos 1092 Rocket 4.2 01:03:41 10° NNW 01:09:41 58° W 01:12:00 36° SSW
Cosmos 2034 Rocket 4.3 01:07:19 32° SW 01:10:12 59° WNW 01:16:31 10° N
Cosmos 909 Rocket 4.1 01:08:37 27° SW 01:12:13 77° NW 01:18:50 10° NE
ISS -1.0 01:14:55 10° ESE 01:14:55 10° ESE 01:15:00 10° ESE
CZ-4C R/B 2.4 01:10:24 25° WSW 01:13:08 61° NNW 01:19:07 10° NE
Cosmos 2237 Rocket 4.5 01:11:09 10° NNW 01:15:50 25° NNE 01:20:29 10° E
Okean 1 4.0 01:16:25 35° W 01:16:43 35° WNW 01:20:02 10° N
SL-16 R/B 2.7 01:15:41 10° NW 01:20:57 40° WSW 01:22:09 36° SW
Cosmos-2242 3.0 01:20:38 51° SW 01:21:27 66° WNW 01:25:37 10° N
Cosmos 1470 2.2 01:20:19 10° N 01:23:39 80° ENE 01:23:49 76° ESE
Cosmos 1842 2.8 01:25:40 63° E 01:25:40 63° E 01:28:49 10° NNE
CZ-4C R/B 3.1 01:24:08 10° N 01:27:16 54° WNW 01:27:19 54° WNW
NOSS 3-3 (A) 3.7 01:27:18 34° SW 01:29:50 88° SE 01:36:26 10° NE
CZ-2C R/B 4.0 01:26:32 10° N 01:31:34 42° WNW 01:34:16 25° WSW
Cosmos 1271 Rocket 2.9 01:33:14 45° SE 01:33:44 49° E 01:37:05 10° NNE
KORONAS-FOTON 3.3 01:34:14 70° WSW 01:34:24 73° WNW 01:37:47 10° N
DNEPR-1 R/B 4.2 01:30:16 10° NW 01:35:26 62° SW 01:39:54 19° SSE
Cosmos 1503 Rocket 4.3 01:30:23 10° NW 01:35:27 49° WSW 01:36:54 38° SSW
USA 290 2.9 01:38:29 41° ESE 01:38:33 41° ESE 01:41:34 10° NE
Cosmos 1354 Rocket 4.0 01:33:42 10° NNW 01:38:56 64° WSW 01:41:04 35° S
Cosmos 2221 2.6 01:39:01 41° SSE 01:40:16 65° E 01:44:24 10° NNE
IDEFIX/ARIANE 42P 3.3 01:38:28 10° NNE 01:43:27 44° E 01:46:18 23° SSE
Cosmos 44 Rocket 4.3 01:40:21 18° W 01:44:00 47° NNW 01:49:03 10° NE
GP-B 3.6 01:42:08 10° N 01:46:20 46° W 01:47:30 37° WSW
Cosmos 2322 4.2 01:42:01 10° NNW 01:47:42 60° NE 01:53:19 10° SE
Cosmos 372 Rocket 4.0 01:43:06 10° NNW 01:48:18 79° ENE 01:52:28 16° SSE
BREEZE-M R/B 4.3 01:42:50 10° W 01:48:37 45° SSW 01:55:00 10° SE
Cosmos 1634 Rocket 4.4 01:46:43 29° SW 01:49:44 52° WNW 01:55:46 10° N
NOSS 3-3 (C) 3.8 01:48:15 29° SW 01:51:16 85° NW 01:57:58 10° NE
Cosmos 2333 4.5 01:48:23 10° NW 01:53:51 49° WSW 01:56:14 31° SSW
ADEOS Rocket 4.3 01:46:36 10° NNE 01:54:02 48° E 02:00:23 15° SSE
Cosmos 2058 Rocket 3.9 01:52:50 30° WSW 01:54:14 39° WNW 01:58:22 10° N
Cosmos 1812 Rocket 3.5 01:56:58 36° S 01:58:41 77° E 02:03:05 10° NNE
TSX-5 4.4 01:57:30 10° NNW 02:00:31 42° NE 02:03:28 10° ESE
FENGYUN 3A 4.3 01:58:15 10° NNE 02:03:31 49° E 02:07:06 20° SSE
PSLV R/B 3.9 02:00:00 10° N 02:03:47 59° WNW 02:04:57 39° SW
Cosmos 1707 3.9 02:04:43 19° WNW 02:04:46 19° WNW 02:06:56 10° NNW
Cosmos 44 3.9 02:02:05 10° NW 02:07:31 68° NE 02:12:50 10° ESE
NOSS 3-4 (A) 4.0 02:01:15 10° NW 02:07:37 50° SW 02:15:04 10° SSE
Cosmos 2279 Rocket 4.3 02:04:45 27° SW 02:08:04 54° WNW 02:14:14 10° N
USA 281 3.2 02:01:37 10° SSE 02:08:12 85° WSW 02:14:50 10° NNW
NOSS 3-4 (C) 4.0 02:01:49 10° NW 02:08:13 51° SW 02:15:41 10° SSE
Nimbus 7 Rocket 4.5 02:03:29 10° NNE 02:09:36 80° ESE 02:13:22 25° SSW
Cosmos 2297 Rocket 4.5 02:06:59 10° SE 02:10:13 16° E 02:13:26 10° ENE
ADEOS II 4.4 02:07:41 10° NE 02:11:09 18° E 02:14:36 10° SE
Meteor 2-20 4.4 02:10:45 24° S 02:14:38 85° E 02:20:48 10° NNE
Cosmos 1975 3.3 02:11:58 10° NNW 02:15:20 35° W 02:15:50 33° WSW
Meteor 1-19 Rocket 4.2 02:13:31 28° SSW 02:16:37 80° WNW 02:22:24 10° NNE
NPP 4.0 02:11:43 10° NNE 02:17:05 63° ESE 02:20:42 21° S
Meteor 2-4 Rocket 4.3 02:15:32 16° SSE 02:19:35 49° E 02:24:45 10° NNE
ACS3 Solar Sail 2.1 02:15:03 10° N 02:20:55 56° WNW 02:24:33 24° SW
ATLAS 2AS CENTAUR R/B 4.1 02:14:37 10° WNW 02:20:57 38° N 02:27:13 10° ENE
USA 234 3.4 02:15:21 10° E 02:21:54 76° N 02:28:27 10° WNW
Cosmos 2360 Rocket 3.2 02:19:50 10° NW 02:24:30 27° WSW 02:26:00 24° SW
Cosmos 1763 Rocket 3.7 02:22:46 26° SW 02:25:44 62° WNW 02:31:01 10° NNE
Meteor 1-11 Rocket 4.0 02:20:15 10° NNW 02:25:57 55° W 02:29:29 23° SSW
Envisat 4.2 02:25:03 10° NNE 02:29:45 36° E 02:34:24 10° SSE
ALOS 4.0 02:27:49 10° NE 02:31:44 27° E 02:35:36 10° SSE
H-2A R/B 3.9 02:27:29 10° NE 02:31:52 26° E 02:36:18 10° SSE
BREEZE-M DEB (TANK) 3.4 02:32:49 25° S 02:32:49 25° S 02:37:18 10° SE
Aureole 1 Rocket 3.9 02:28:27 10° NW 02:32:41 39° WSW 02:35:33 22° SSW
Cosmos 540 Rocket 3.7 02:29:52 25° SW 02:32:50 59° WNW 02:37:57 10° NNE
COSMOS 2428 2.7 02:27:14 10° NW 02:32:59 83° WSW 02:38:42 10° SSE
Cosmos 1238 Rocket 2.4 02:31:56 31° S 02:33:17 69° E 02:36:42 10° NNE
MSX 3.8 02:27:53 10° NNE 02:33:41 84° WNW 02:37:38 21° SSW
Cosmos 2266 Rocket 4.4 02:28:41 10° NNW 02:34:23 43° W 02:37:49 22° SSW
Meteor 1-10 Rocket 4.4 02:32:15 23° SSW 02:35:55 70° WNW 02:41:50 10° N
SL-16 R/B 4.5 02:31:45 10° NNW 02:36:37 28° NE 02:41:27 10° E
COSMOS 2406 4.5 02:33:38 12° W 02:38:18 34° NW 02:43:31 10° NNE
Cosmos 841 Rocket 3.9 02:37:10 19° S 02:40:49 58° ESE 02:45:57 10° NNE
BREEZE-M DEB (TANK) 4.2 02:38:44 19° SSW 02:42:11 26° SSE 02:45:32 10° ESE
Cosmos 2322 Rocket 3.6 02:40:49 10° WNW 02:44:32 18° W 02:45:42 17° WSW
Cosmos 858 Rocket 4.5 02:39:22 10° NNW 02:44:35 89° NE 02:49:46 10° SSE
Alouette 2 Rocket 3.2 02:41:10 10° NNW 02:44:54 57° W 02:47:01 22° S
Cosmos 2082 Rocket 4.1 02:40:48 10° W 02:45:16 23° NNW 02:49:43 10° NNE
Cosmos 1461 2.5 02:44:10 28° SW 02:46:02 88° NW 02:49:45 10° NE
Cosmos 2219 Rocket 3.2 02:44:15 10° NW 02:48:55 27° WSW 02:51:22 20° SW
ISS -3.3 02:47:51 30° SW 02:49:02 43° SSE 02:52:16 10° E
Cosmos 1758 4.2 02:46:02 10° N 02:49:33 43° ENE 02:53:00 10° SSE
Cosmos 2333 Rocket 4.2 02:51:32 10° W 02:52:19 10° W 02:52:52 10° W
Okean 3 Rocket 3.8 02:52:26 10° N 02:56:56 76° ENE 03:01:25 10° SSE
Cosmos 1937 Rocket 3.6 02:52:37 10° NNW 02:57:42 56° WSW 03:02:41 10° S
Cosmos 2237 Rocket 2.4 02:55:04 10° NNW 03:00:49 77° NE 03:06:30 10° SE
Cosmos 1766 Rocket 4.0 02:58:14 10° NNW 03:02:19 42° W 03:05:10 18° SSW
CZ-4C R/B 3.8 02:57:34 10° WNW 03:02:24 35° N 03:08:34 10° ENE
Cosmos 1980 3.8 02:57:41 10° NNW 03:03:23 84° ENE 03:09:02 10° SE
MOZ.5/SAFIR/RUBIN 5/SL-8 3.9 02:59:26 13° S 03:03:29 53° W 03:08:02 10° NNW
NOAA 11 4.2 02:58:52 10° NNE 03:04:20 90° WNW 03:09:10 13° SSW
CZ-2D R/B 2.8 02:59:15 10° NNE 03:04:27 54° E 03:09:42 10° S
Cosmos 1244 Rocket 4.5 02:58:17 10° NNW 03:04:32 77° W 03:10:40 10° S
Cosmos 1898 Rocket 4.0 02:59:55 10° NW 03:04:40 38° WSW 03:09:06 12° S
Meteor 1-27 Rocket 4.0 03:00:57 17° SSW 03:05:33 64° WNW 03:11:25 10° N
Sich 1 2.8 03:03:35 10° NNW 03:07:45 83° W 03:11:54 10° S
Cosmos 1271 Rocket 4.4 03:06:37 13° W 03:08:14 17° WNW 03:10:36 10° NNW
Meteor 2-10 Rocket 3.5 03:05:07 10° NNW 03:10:16 67° W 03:15:37 10° S
Resurs 1-4 Rocket 2.4 03:06:30 10° NNE 03:11:49 67° ESE 03:17:03 10° S
USA 290 4.1 03:10:58 13° W 03:12:52 20° NW 03:15:17 10° N
Cosmos 468 Rocket 4.5 03:09:31 16° SW 03:13:32 51° NW 03:18:42 10° NNE
Cosmos 1408 Rocket 3.8 03:09:17 10° N 03:13:35 71° ENE 03:17:49 10° SSE
USA 307 3.6 03:15:06 14° S 03:16:18 19° SE 03:18:38 10° E
Cosmos 2221 4.3 03:15:19 12° W 03:17:45 18° WNW 03:20:40 10° NNW
Iridium 4 Rocket 4.2 03:14:27 16° SW 03:18:10 40° WNW 03:23:20 10° N
Cosmos 2227 Rocket 4.3 03:14:00 10° SSE 03:18:13 22° ESE 03:22:27 10° NE
RESURS DK-1 2.3 03:14:32 10° NW 03:18:27 57° WSW 03:22:20 10° SSE
Cosmos 1151 Rocket 3.8 03:16:29 10° S 03:20:34 49° E 03:24:42 10° NNE
Nadezhda 2 Rocket 4.5 03:16:13 10° NNW 03:22:18 67° W 03:28:20 10° S
IDEFIX/ARIANE 42P 3.4 03:18:06 10° N 03:22:51 37° WNW 03:26:59 13° SW
USA 267 4.4 03:19:40 10° ENE 03:25:32 33° SE 03:31:22 10° SSW
DMSP B5D2-2 4.4 03:23:08 10° S 03:28:06 46° W 03:33:08 10° NNW
H-2A R/B 2.3 03:26:39 10° S 03:30:07 49° WSW 03:33:36 10° NNW
Cosmos 2322 4.4 03:26:33 10° NW 03:31:35 33° WSW 03:36:34 10° SSW
ADEOS Rocket 3.9 03:32:09 10° N 03:39:35 55° WNW 03:47:04 10° SW
Cosmos 1340 Rocket 2.7 03:39:07 10° NNW 03:42:55 82° ENE 03:46:43 10° SSE
Meteor 1-18 Rocket 4.2 03:40:09 10° SSW 03:45:39 69° WNW 03:51:15 10° N
Cosmos 192 4.3 03:42:07 10° NNW 03:47:04 72° WSW 03:51:58 10° SSE
NOSS 0 Rocket 4.4 03:42:45 10° NW 03:48:22 37° WSW 03:53:56 10° S
Cosmos 44 4.2 03:43:36 10° WNW 03:48:24 33° WSW 03:53:05 10° S
ADEOS II 2.1 03:46:10 10° NNE 03:51:27 90° WSW 03:56:41 10° SSW
Cosmos 1500 Rocket 3.7 03:47:34 10° NNW 03:51:55 57° W 03:56:15 10° S
BREEZE-M DEB (TANK) 2.2 03:48:13 10° W 03:52:18 62° S 03:54:25 10° ESE
Cosmos 1066 Rocket 4.5 03:47:17 10° SW 03:52:28 50° WNW 03:57:42 10° N
Cosmos 2297 Rocket 2.4 03:47:40 10° SSW 03:53:18 74° ESE 03:58:57 10° NE
USA 281 4.3 03:48:37 10° SSW 03:53:35 22° W 03:58:35 10° NW
Cosmos 2263 Rocket 4.1 03:52:31 10° SSE 03:57:07 27° ESE 04:01:43 10° NE
Cosmos 1553 Rocket 4.3 03:51:40 10° SSW 03:57:49 56° WNW 04:04:05 10° N
Cosmos 1633 Rocket 4.1 03:53:54 10° N 03:58:07 50° ENE 04:02:18 10° SSE
METEOR-M 4.3 03:54:40 10° NNE 04:00:02 82° ESE 04:05:22 10° SSW
Cosmos 1842 Rocket 4.5 03:56:48 10° SW 04:00:41 32° WNW 04:04:39 10° N
ACS3 Solar Sail 3.7 03:58:50 10° NNW 04:02:08 15° NW 04:05:28 10° W
Cosmos 1709 Rocket 4.0 03:56:59 10° NNW 04:03:06 76° W 04:09:13 10° S
In-Cosmos 22 4.2 03:59:00 10° SSW 04:04:19 64° WNW 04:09:49 10° N
USA 234 3.3 03:58:33 10° SE 04:05:04 66° SSW 04:11:36 10° WNW
